ORBCOMM FM106 [+]

Last updated on Thu Sep 07 2017 00:18:45 GMT+0000 (Coordinated Universal Time)

1 40088U 14040C 17249.55862263 -.00000066 00000-0 23048-4 0 9993 2 40088 47.0046 52.9442 0002315 266.8952 93.1668 14.54583967167232

Satellite not in orbit

ORBCOMM FM106 [+]